AirNav   $300 off a Bose A20 aviation headset
 
 822 users online  

86F Carnegie Municipal Airport
Carnegie, Oklahoma, USA

GOING TO CARNEGIE?


FAA INFORMATION EFFECTIVE 28 FEBRUARY 2019

Location

FAA Identifier: 86F
Lat/Long: 35-07-25.4000N / 098-34-30.9000W
35-07.423333N / 098-34.515000W
35.1237222 / -98.5752500
(estimated)
Elevation: 1354 ft. / 413 m (estimated)
Variation: 07E (1985)
From city: 2 miles NE of CARNEGIE, OK
Time zone: UTC -6 (UTC -5 during Daylight Saving Time)
Zip code: 73015

Airport Operations

Airport use: Open to the public
Activation date: 12/1972
Control tower: no
ARTCC: FORT WORTH CENTER
FSS: MC ALESTER FLIGHT SERVICE STATION
NOTAMs facility: MLC (NOTAM-D service available)
Attendance: UNATNDD
Wind indicator: yes
Segmented circle: no
Lights: ACTVT MIRL RY 17/35 - CTAF.

Airport Communications

CTAF: 122.9

Nearby radio navigation aids

VOR radial/distance  VOR name  Freq  Var
HBRr047/28.5HOBART VORTAC111.8010E
BFVr097/31.7BURNS FLAT VORTAC110.0005E
LAWr339/38.5LAWTON VOR/DME109.4009E

 
NDB name  Hdg/Dist  Freq  Var  ID
TRAIL329/22.238809EOFZ --- ..-. --..
POST337/32.042508EPFL .--. ..-. .-..

Airport Services

Parking: tiedowns
Airframe service: NONE
Powerplant service: NONE
Bottled oxygen: NONE
Bulk oxygen: NONE

Runway Information

Runway 17/35

Dimensions: 3000 x 60 ft. / 914 x 18 m
Surface: asphalt/concrete, in fair condition
Weight bearing capacity: 
Single wheel: 11.0
Runway edge lights: medium intensity
Gradient: S.
RUNWAY 17  RUNWAY 35
Latitude: 35-07.670003N35-07.175358N
Longitude: 098-34.512895W098-34.516102W
Elevation: 1342.0 ft.1354.0 ft.
Gradient: 0.4% UP0.4%
Traffic pattern: leftleft
Runway heading: 173 magnetic, 180 true353 magnetic, 000 true
Markings: basic, in fair conditionbasic, in fair condition
Obstructions: none9 ft. tree, 365 ft. from runway, 50 ft. left of centerline, 18:1 slope to clear
RWY 35 HAS 13 FT TREE 165 FT FROM RWY END AND 65 FT R.

Airport Ownership and Management from official FAA records

Ownership: Publicly-owned
Owner: CITY OF CARNEGIE
PO BOX 1075, 11 E MAIN
CARNEGIE, OK 73015
Phone 580-654-1004
Manager: ROBERT PETTIT
30150 COUNTY STREET 2475
CARNEGIE, OK 73015
Phone (580) 574-3140

Airport Operational Statistics

Aircraft based on the field: 10
Single engine airplanes: 9
Helicopters: 1
    
Aircraft operations: avg 42/month *
60% transient general aviation
40% local general aviation
* for 12-month period ending 12 May 2017

Instrument Procedures

There are no published instrument procedures at 86F.

Some nearby airports with instrument procedures:

KHBR - Hobart Regional Airport (25 nm W)
2O8 - Hinton Municipal Airport (26 nm NE)
KOJA - Thomas P Stafford Airport (26 nm N)
KFSI - Henry Post Army Airfield (Fort Sill) (30 nm S)
KCHK - Chickasha Municipal Airport (30 nm E)
 
Loc | Ops | Rwys | IFR | FBO | Links
Com | Nav | Svcs | Stats | Notes
Area around 86F (Carnegie Municipal Airport)
 
Road maps at: MapQuest Bing Google
 
Aerial photo
WARNING: Photo may not be current or correct
Aerial photo of 86F (Carnegie Municipal Airport)
Photo taken 12-Nov-2005
looking North just before sunset

Do you have a better or more recent aerial photo of Carnegie Municipal Airport that you would like to share? If so, please send us your photo.

 
Sectional chart

 
Airport distance calculator
Flying to Carnegie Municipal Airport? Find the distance to fly.

From to 86F

Sunrise and sunset
Times for 23-Mar-2019
 Local
(UTC-5)
 Zulu
(UTC)
Morning civil twilight07:0912:09
Sunrise07:3512:35
Sunset19:4700:47
Evening civil twilight20:1301:13

Current date and time
Zulu (UTC)  23-Mar-2019 23:45:18
Local (UTC-5)  23-Mar-2019 18:45:18
 
METAR
KHBR 
25nm W 
232253Z AUTO 31014KT 10SM CLR 22/07 A2990 RMK AO2 SLP115 T02170067
KOJA 
26nm N 
232335Z AUTO 26007KT 10SM CLR 20/09 A2990 RMK AO2
KCHK 
30nm E 
232335Z AUTO 21008KT 10SM BKN090 24/09 A2985 RMK AO2 LTG DSNT NE AND S T02390092
KFSI 
31nm S 
232256Z AUTO 21010G20KT 10SM CLR 26/09 A2986 RMK AO2 SLP106 T02570091 $
KCSM 
33nm NW 
232253Z AUTO 27016G20KT 10SM CLR 18/08 A2991 RMK AO2 SLP120 T01830078
KRQO 
35nm NE 
232335Z AUTO 35007KT CLR 21/14 A2991 RMK AO2 LTG DSNT E PWINO T02060136
KLAW 
35nm S 
232253Z 21011KT 10SM FEW090 26/08 A2987 RMK AO2 SLP107 T02610078
KRCE 
43nm NE 
232335Z AUTO 04011KT 10SM CLR 19/14 A2990 RMK AO2 LTG DSNT NE AND S
KLTS 
44nm SW 
232256Z AUTO 33012KT 10SM CLR 24/03 A2988 RMK AO2 SLP110 T02400033 $
KELK 
44nm NW 
232335Z AUTO 24005KT 10SM CLR 20/05 A2990 RMK AO2 LTG DSNT E T02010051
TAF
KFSI 
31nm S 
232100Z 2321/2503 25012G20KT 9999 BKN040 QNH2985INS BECMG 2322/2323 16009KT 9999 SKC QNH2984INS BECMG 2405/2406 17009KT 6000 BR SCT008 510102 QNH2991INS BECMG 2413/2414 34009KT 9999 NSW SKC QNH2993INS TX26/2321Z TN11/2411Z
NOTAMs
Click for the latest NOTAMs
NOTAMs are issued by the DoD/FAA and will open in a separate window not controlled by AirNav.

 

 
 

Would you like to see your business listed on this page?

 If your business provides an interesting product or service to pilots, flight crews, aircraft, or users of the Carnegie Municipal Airport, you should consider listing it here.  To start the listing process, click on the button below
 
Add a business
 

Other Pages about Carnegie Municipal Airport

Update a link
 
Copyright © AirNav, LLC. All rights reserved. Privacy Policy  Contact